• In Belgien
  • Länderverzeichnis
  • Für 7 Tage
  • Wassertemperatur
  • Satellitenkarten
  • Wetterkarte
  • Widgets
  • user-avatar
    Anmelden

    Stündliche Wetter Hobart

    Heute, 12 Dezember, Dienstag

    Zeit Temperatur Niederschläge Wind Luftdruck Luftfeuchtigkeit
    00:00 +12°C° 0 mm 1 m/S 749 mmHg 97%
    01:00 +12°C° 0 mm 2 m/S 749 mmHg 98%
    02:00 +12°C° 0 mm 2 m/S 749 mmHg 97%
    03:00 +12°C° 0 mm 2 m/S 749 mmHg 97%
    04:00 +12°C° 0 mm 2 m/S 748 mmHg 97%
    05:00 +13°C° 0 mm 2 m/S 748 mmHg 89%
    06:00 +15°C° 0 mm 2 m/S 748 mmHg 82%
    07:00 +16°C° 0 mm 2 m/S 748 mmHg 74%
    08:00 +19°C° 0 mm 2 m/S 748 mmHg 63%
    09:00 +23°C° 0 mm 1 m/S 748 mmHg 52%
    10:00 +25°C° 0 mm 1 m/S 748 mmHg 41%
    11:00 +26°C° 0 mm 2 m/S 748 mmHg 38%
    12:00 +27°C° 0 mm 3 m/S 748 mmHg 34%
    13:00 +28°C° 0 mm 3 m/S 748 mmHg 31%
    14:00 +28°C° 0 mm 3 m/S 747 mmHg 33%
    15:00 +28°C° 0 mm 3 m/S 747 mmHg 34%
    16:00 +27°C° 0 mm 4 m/S 747 mmHg 35%
    17:00 +25°C° 0 mm 3 m/S 747 mmHg 46%
    18:00 +23°C° 0 mm 2 m/S 747 mmHg 57%
    19:00 +19°C° 0 mm 2 m/S 747 mmHg 68%
    20:00 +18°C° 0 mm 2 m/S 747 mmHg 76%
    21:00 +16°C° 0 mm 2 m/S 747 mmHg 83%
    22:00 +14°C° 0 mm 2 m/S 747 mmHg 91%
    23:00 +14°C° 0 mm 2 m/S 747 mmHg 93%

    Morgen, 13 Dezember, Mittwoch

    Zeit Temperatur Niederschläge Wind Luftdruck Luftfeuchtigkeit
    00:00 +14°C° 0 mm 2 m/S 746 mmHg 94%
    01:00 +13°C° 0 mm 3 m/S 746 mmHg 95%
    02:00 +12°C° 0 mm 3 m/S 745 mmHg 96%
    03:00 +12°C° 0 mm 3 m/S 745 mmHg 96%
    04:00 +12°C° 0 mm 3 m/S 744 mmHg 97%
    05:00 +14°C° 0 mm 3 m/S 744 mmHg 86%
    06:00 +17°C° 0 mm 3 m/S 744 mmHg 75%
    07:00 +20°C° 0 mm 3 m/S 744 mmHg 63%
    08:00 +22°C° 0 mm 3 m/S 743 mmHg 50%
    09:00 +26°C° 0 mm 2 m/S 743 mmHg 37%
    10:00 +28°C° 0 mm 2 m/S 743 mmHg 24%
    11:00 +29°C° 0 mm 2 m/S 742 mmHg 23%
    12:00 +30°C° 0 mm 2 m/S 742 mmHg 22%
    13:00 +31°C° 0 mm 3 m/S 741 mmHg 21%
    14:00 +33°C° 0 mm 3 m/S 741 mmHg 22%
    15:00 +33°C° 0 mm 3 m/S 740 mmHg 23%
    16:00 +34°C° 0 mm 4 m/S 739 mmHg 24%
    17:00 +30°C° 0 mm 3 m/S 739 mmHg 33%
    18:00 +28°C° 0 mm 3 m/S 739 mmHg 42%
    19:00 +25°C° 0 mm 3 m/S 739 mmHg 51%
    20:00 +24°C° 0 mm 3 m/S 738 mmHg 52%
    21:00 +22°C° 0 mm 3 m/S 738 mmHg 54%
    22:00 +21°C° 0 mm 3 m/S 738 mmHg 55%
    23:00 +21°C° 0 mm 3 m/S 738 mmHg 56%

    übermorgen, 14 Dezember, Donnerstag

    Zeit Temperatur Niederschläge Wind Luftdruck Luftfeuchtigkeit
    00:00 +20°C° 0 mm 2 m/S 737 mmHg 56%
    01:00 +20°C° 0 mm 2 m/S 737 mmHg 56%
    02:00 +19°C° 0 mm 2 m/S 737 mmHg 60%
    03:00 +19°C° 0 mm 1 m/S 736 mmHg 64%
    04:00 +19°C° 0 mm 1 m/S 735 mmHg 68%
    05:00 +20°C° 0 mm 1 m/S 735 mmHg 65%
    06:00 +20°C° 0 mm 2 m/S 736 mmHg 62%
    07:00 +21°C° 0 mm 2 m/S 736 mmHg 59%
    08:00 +22°C° 0 mm 3 m/S 736 mmHg 60%
    09:00 +22°C° 0 mm 3 m/S 736 mmHg 62%
    10:00 +22°C° 0 mm 4 m/S 736 mmHg 63%
    11:00 +22°C° 0 mm 5 m/S 736 mmHg 57%
    12:00 +22°C° 0 mm 5 m/S 736 mmHg 52%
    13:00 +22°C° 0 mm 6 m/S 737 mmHg 47%
    14:00 +21°C° 0 mm 6 m/S 737 mmHg 48%
    15:00 +20°C° 0 mm 6 m/S 737 mmHg 50%
    16:00 +19°C° 0 mm 6 m/S 738 mmHg 51%
    17:00 +17°C° 0 mm 6 m/S 738 mmHg 54%
    18:00 +16°C° 0 mm 6 m/S 739 mmHg 57%
    19:00 +14°C° 0 mm 6 m/S 740 mmHg 61%
    20:00 +14°C° 0,1 mm 5 m/S 740 mmHg 66%
    21:00 +13°C° 0,1 mm 5 m/S 741 mmHg 72%
    22:00 +12°C° 0,1 mm 4 m/S 742 mmHg 78%
    23:00 +12°C° 0,1 mm 4 m/S 742 mmHg 80%

    15 Dezember, Freitag

    Zeit Temperatur Niederschläge Wind Luftdruck Luftfeuchtigkeit
    00:00 +11°C° 0,1 mm 4 m/S 742 mmHg 83%
    01:00 +11°C° 0,1 mm 3 m/S 743 mmHg 85%
    02:00 +10°C° 0 mm 3 m/S 743 mmHg 87%
    03:00 +10°C° 0 mm 2 m/S 743 mmHg 88%
    04:00 +9°C° 0 mm 2 m/S 743 mmHg 89%
    05:00 +10°C° 0 mm 2 m/S 744 mmHg 83%
    06:00 +12°C° 0 mm 2 m/S 744 mmHg 76%
    07:00 +13°C° 0 mm 2 m/S 744 mmHg 70%
    08:00 +15°C° 0 mm 2 m/S 744 mmHg 60%
    09:00 +17°C° 0 mm 2 m/S 744 mmHg 50%
    10:00 +19°C° 0 mm 2 m/S 744 mmHg 40%
    11:00 +21°C° 0 mm 3 m/S 743 mmHg 36%
    12:00 +22°C° 0 mm 3 m/S 743 mmHg 33%
    13:00 +25°C° 0 mm 4 m/S 742 mmHg 30%
    14:00 +25°C° 0 mm 4 m/S 742 mmHg 30%
    15:00 +25°C° 0 mm 4 m/S 741 mmHg 31%
    16:00 +25°C° 0 mm 5 m/S 741 mmHg 32%
    17:00 +22°C° 0 mm 4 m/S 741 mmHg 39%
    18:00 +20°C° 0 mm 3 m/S 741 mmHg 46%
    19:00 +18°C° 0 mm 2 m/S 741 mmHg 54%
    20:00 +16°C° 0 mm 2 m/S 741 mmHg 62%
    21:00 +14°C° 0 mm 2 m/S 741 mmHg 71%
    22:00 +12°C° 0 mm 2 m/S 741 mmHg 80%
    23:00 +11°C° 0 mm 3 m/S 741 mmHg 80%

    16 Dezember, Samstag

    Zeit Temperatur Niederschläge Wind Luftdruck Luftfeuchtigkeit
    00:00 +11°C° 0 mm 3 m/S 741 mmHg 81%
    01:00 +11°C° 0 mm 4 m/S 741 mmHg 82%
    02:00 +12°C° 0 mm 4 m/S 741 mmHg 81%
    03:00 +12°C° 0 mm 4 m/S 741 mmHg 80%
    04:00 +12°C° 0 mm 4 m/S 741 mmHg 78%
    05:00 +13°C° 0 mm 5 m/S 741 mmHg 75%
    06:00 +14°C° 0 mm 5 m/S 741 mmHg 72%
    07:00 +16°C° 0 mm 6 m/S 742 mmHg 69%
    08:00 +15°C° 0,3 mm 5 m/S 742 mmHg 73%
    09:00 +15°C° 0,3 mm 5 m/S 743 mmHg 77%
    10:00 +15°C° 0,3 mm 5 m/S 744 mmHg 81%
    11:00 +16°C° 0,1 mm 5 m/S 744 mmHg 74%
    12:00 +16°C° 0,1 mm 5 m/S 745 mmHg 67%
    13:00 +17°C° 0,1 mm 5 m/S 745 mmHg 61%
    14:00 +19°C° 0 mm 5 m/S 746 mmHg 53%
    15:00 +20°C° 0 mm 4 m/S 746 mmHg 45%
    16:00 +20°C° 0 mm 4 m/S 746 mmHg 37%
    17:00 +19°C° 0 mm 4 m/S 747 mmHg 42%
    18:00 +18°C° 0 mm 4 m/S 748 mmHg 47%
    19:00 +16°C° 0 mm 3 m/S 748 mmHg 52%
    20:00 +13°C° 0 mm 3 m/S 749 mmHg 62%
    21:00 +12°C° 0 mm 2 m/S 750 mmHg 73%
    22:00 +8°C° 0 mm 2 m/S 750 mmHg 83%
    23:00 +8°C° 0 mm 2 m/S 750 mmHg 87%

    17 Dezember, Sonntag

    Zeit Temperatur Niederschläge Wind Luftdruck Luftfeuchtigkeit
    00:00 +8°C° 0 mm 1 m/S 750 mmHg 90%
    01:00 +8°C° 0 mm 1 m/S 750 mmHg 93%
    02:00 +8°C° 0 mm 1 m/S 750 mmHg 91%
    03:00 +9°C° 0 mm 1 m/S 750 mmHg 89%
    04:00 +9°C° 0 mm 1 m/S 750 mmHg 87%
    05:00 +11°C° 0 mm 1 m/S 751 mmHg 83%
    06:00 +12°C° 0 mm 1 m/S 751 mmHg 79%
    07:00 +14°C° 0 mm 2 m/S 751 mmHg 75%
    08:00 +16°C° 0 mm 2 m/S 751 mmHg 69%
    09:00 +17°C° 0 mm 3 m/S 751 mmHg 63%
    10:00 +19°C° 0 mm 3 m/S 751 mmHg 57%
    11:00 +21°C° 0 mm 3 m/S 751 mmHg 52%
    12:00 +22°C° 0 mm 4 m/S 750 mmHg 48%
    13:00 +25°C° 0 mm 4 m/S 750 mmHg 43%
    14:00 +23°C° 0 mm 4 m/S 750 mmHg 48%
    15:00 +22°C° 0 mm 5 m/S 750 mmHg 53%
    16:00 +22°C° 0 mm 5 m/S 749 mmHg 58%
    17:00 +20°C° 0 mm 4 m/S 749 mmHg 66%
    18:00 +19°C° 0 mm 4 m/S 750 mmHg 74%
    19:00 +18°C° 0 mm 3 m/S 750 mmHg 82%
    20:00 +17°C° 0 mm 3 m/S 750 mmHg 86%
    21:00 +16°C° 0 mm 2 m/S 749 mmHg 89%
    22:00 +15°C° 0 mm 2 m/S 749 mmHg 92%
    23:00 +15°C° 0 mm 2 m/S 749 mmHg 93%
    Mehr zeigen